Location: Wayah Bald
(35.1806°N, 83.5603°W)
Time: 18:29:29
(UTC-04:00)

Meteor 1-27 Rocket - Visible Passes

Search period start: 27 April 2017 00:00
Search period end: 07 May 2017 00:00
Orbit: 830 x 910 km, 81.3° (Epoch: 26 April)

Date Brightness Start Highest point End Pass type
(mag) Time Alt. Az. Time Alt. Az. Time Alt. Az.
27 Apr 5.8 00:42:16 20° NW 00:42:16 20° NW 00:45:12 10° NNW visible
27 Apr 4.9 22:53:16 31° NE 22:53:16 31° NE 22:56:31 10° NNE visible
28 Apr 5.8 00:35:39 21° WNW 00:35:39 21° WNW 00:38:57 10° NNW visible
28 Apr 4.6 22:46:37 35° NE 22:46:37 35° NE 22:50:20 10° NNE visible
29 Apr 5.8 00:29:01 20° WNW 00:29:01 20° WNW 00:32:40 10° NNW visible
29 Apr 4.3 22:39:55 40° ENE 22:39:55 40° ENE 22:44:09 10° NNE visible
30 Apr 5.8 00:22:18 20° WNW 00:22:22 20° WNW 00:26:23 10° NNW visible
30 Apr 4.1 22:33:10 45° ENE 22:33:10 45° ENE 22:37:58 10° NNE visible
01 May 5.8 00:15:33 19° W 00:16:11 19° WNW 00:20:07 10° NNW visible
01 May 3.9 22:26:21 48° E 22:26:27 48° E 22:31:47 10° NNE visible
02 May 5.8 00:08:44 17° W 00:10:00 19° WNW 00:13:50 10° NNW visible
02 May 3.9 22:19:28 46° ESE 22:20:15 49° E 22:25:36 10° NNE visible
03 May 5.9 00:01:50 15° W 00:03:49 18° WNW 00:07:33 10° NNW visible
03 May 3.8 22:12:29 39° SE 22:14:02 51° E 22:19:25 10° NNE visible
03 May 6.0 23:54:50 12° WSW 23:57:39 17° WNW 00:01:15 10° NNW visible
04 May 3.8 22:05:24 31° SSE 22:07:51 53° E 22:13:14 10° NNE visible
04 May 6.1 23:47:58 10° WSW 23:51:28 17° WNW 23:54:58 10° NNW visible
05 May 3.8 21:58:11 22° SSE 22:01:38 55° E 22:07:02 10° NNE visible
05 May 6.2 23:41:55 10° WSW 23:45:17 16° WNW 23:48:39 10° NNW visible
06 May 3.7 21:50:47 14° S 21:55:26 57° E 22:00:51 10° NNE visible
06 May 6.2 23:35:53 10° WSW 23:39:06 16° WNW 23:42:20 10° NW visible
